Wind_Speed
60 60 59 59 59 59 59 59 60 60 61 62 62 63 63 63 62 62 62 62 62 62 62 61 61 61 60 60 60 60 60 60 60 59 59 59 59 59 60 60 61 61 62 62 62 62 62 62 62 62 62 62 63 63 64 64 64 63 62 61 61 60 60 60 60 60 60 60 60 61 61 62 62 63 63 64 65 66 67 67 68 69 70 71 71 72
60 59 59 59 58 59 59 59 60 61 61 62 62 63 63 63 63 63 63 63 63 63 63 63 62 62 61 61 61 61 61 61 60 60 60 60 60 60 60 60 61 61 62 62 62 62 62 62 62 62 62 63 63 64 64 64 63 62 61 61 60 60 60 60 60 60 60 60 60 61 61 62 62 63 64 65 65 66 67 68 69 70 70 71 72 72
58 58 58 58 58 58 59 59 60 61 62 62 63 63 63 64 64 64 64 64 64 64 64 64 63 63 62 62 62 62 62 61 61 61 60 60 60 60 60 60 61 61 62 62 62 62 62 62 62 62 63 63 64 64 64 64 63 62 61 60 60 60 60 60 60 60 60 60 61 61 61 62 63 63 64 65 66 67 68 68 69 70 71 71 72 73
57 57 58 58 58 59 59 60 60 61 62 62 63 63 63 64 64 64 65 65 65 65 65 65 64 64 63 63 62 62 62 62 61 61 61 61 61 60 60 60 61 61 62 62 62 62 62 62 63 63 63 64 64 64 64 63 62 62 61 61 60 60 60 60 60 60 60 61 61 61 62 63 63 64 65 65 66 67 68 69 70 71 71 72 73 73
56 57 57 58 58 59 59 60 61 61 62 63 63 63 64 64 64 65 65 65 65 65 65 65 65 64 63 63 63 63 63 62 62 62 62 61 61 61 60 60 61 61 62 62 63 63 63 63 63 64 64 64 64 64 64 63 62 62 61 61 61 61 61 61 61 61 61 61 61 62 63 63 64 64 65 66 67 68 69 69 70 71 72 72 73 73
56 56 57 58 58 59 60 60 61 62 62 63 63 64 64 64 65 65 65 66 66 66 66 65 65 64 64 63 63 63 63 63 62 62 62 62 61 61 60 60 61 61 62 62 63 63 63 63 64 64 64 64 64 64 63 63 62 62 62 62 62 62 62 61 61 61 61 62 62 63 63 64 64 65 66 67 68 68 69 70 71 71 72 73 73 74
56 57 57 58 59 60 60 61 62 62 63 64 64 64 64 65 65 65 66 66 66 66 66 66 65 65 64 63 63 63 63 63 63 62 62 62 61 61 60 60 61 61 62 63 63 63 63 63 64 64 64 64 64 64 63 63 63 62 62 63 63 63 62 62 62 62 62 62 63 63 64 65 65 66 67 67 68 69 70 70 71 72 72 73 73 74
56 57 57 58 59 60 61 62 62 63 64 64 65 65 65 65 65 65 66 66 66 66 66 66 65 65 64 64 64 63 63 63 63 62 62 62 61 61 61 61 61 62 62 63 63 63 63 63 64 64 64 64 64 64 63 63 63 63 63 63 63 63 63 63 62 62 62 63 63 64 65 65 66 67 67 68 69 70 70 71 71 72 73 73 74 75
57 57 58 59 60 61 62 62 63 64 64 65 65 66 66 66 66 66 66 66 66 66 66 65 65 65 64 64 64 63 63 63 63 62 62 62 61 61 61 61 61 61 62 62 63 63 63 63 64 64 64 64 64 64 63 63 63 63 64 64 64 64 64 63 63 63 63 64 64 65 65 66 67 67 68 69 70 70 71 71 72 72 73 74 75 76
58 58 59 60 61 62 62 63 64 64 65 66 66 66 66 66 66 66 66 66 66 66 66 65 65 64 64 64 64 63 63 63 63 62 62 62 62 61 61 61 61 61 62 62 63 63 63 63 64 64 64 64 64 64 64 63 63 64 64 64 64 64 64 64 64 64 64 64 65 65 66 67 67 68 69 69 70 71 71 72 72 73 74 75 76 77
60 60 61 62 62 63 64 64 65 65 65 66 66 66 66 66 66 66 66 66 66 66 65 65 65 64 64 64 63 63 63 63 63 62 62 62 62 61 61 61 61 61 62 62 62 63 63 63 64 64 64 64 64 64 64 64 64 64 64 65 65 65 65 65 64 65 65 65 65 66 67 67 68 69 69 70 70 71 71 72 73 73 74 75 76 78
61 61 62 63 64 64 64 65 65 65 66 66 66 66 66 66 66 66 66 66 65 65 65 65 64 64 63 63 63 63 63 62 62 62 62 62 62 61 61 61 61 61 61 62 62 63 63 64 64 64 64 64 64 64 64 64 64 64 65 65 65 65 65 65 65 65 65 66 66 67 67 68 69 69 70 70 71 71 72 72 73 74 75 76 77 78
63 63 63 64 64 65 65 65 65 65 65 65 65 65 65 65 65 65 65 65 65 65 64 64 64 63 63 63 62 62 62 62 62 62 62 62 62 61 61 61 61 61 61 61 62 63 63 64 64 64 64 64 64 64 64 64 64 65 65 65 66 66 66 66 66 66 66 66 67 67 68 68 69 69 70 70 71 71 72 73 73 74 75 76 77 78
63 64 64 64 65 65 65 65 65 65 65 65 65 65 65 65 65 65 64 64 64 64 64 64 63 63 62 62 62 62 62 62 62 62 62 61 61 61 61 61 61 61 61 61 62 63 63 64 64 64 64 64 64 64 64 64 64 65 65 66 66 66 66 66 66 66 66 67 67 67 68 69 69 70 70 71 71 71 72 73 74 75 75 76 77 78
63 64 64 64 64 64 64 64 64 64 64 64 64 64 64 64 64 64 64 64 64 64 64 63 63 62 62 62 61 61 61 61 61 61 61 61 61 60 60 60 60 61 61 61 62 63 63 63 64 64 64 64 64 64 64 64 64 65 66 66 66 66 66 66 66 66 67 67 67 68 68 69 69 70 70 71 71 72 72 73 74 75 75 76 77 77
63 63 63 63 63 63 63 63 63 63 63 63 63 63 63 63 63 63 63 63 63 64 63 63 62 62 61 61 61 61 61 61 61 61 60 60 61 60 60 60 60 60 61 61 62 63 63 63 64 64 64 64 64 64 64 64 65 65 66 66 66 66 66 66 66 66 67 67 67 68 68 69 69 70 70 71 71 72 73 73 74 74 75 75 76 76
62 62 62 62 62 62 61 62 62 62 62 63 63 63 62 62 63 63 62 63 63 63 63 62 61 61 60 60 60 61 61 61 61 61 60 60 60 60 59 59 59 60 60 61 62 62 63 63 63 64 64 64 64 63 64 64 64 65 65 66 66 66 66 66 66 66 66 67 67 68 68 69 69 70 70 71 71 72 73 73 73 74 74 74 74 74
62 61 61 61 61 61 61 61 61 61 61 62 62 62 62 62 62 62 62 62 62 62 62 61 61 60 60 60 60 60 61 61 61 61 60 59 59 59 59 59 59 60 60 61 61 62 63 63 63 63 64 64 63 63 64 64 64 65 65 65 65 65 65 65 66 66 66 67 67 68 68 69 69 70 70 71 71 72 72 73 73 73 73 73 73 73
61 61 61 60 60 60 60 60 60 61 61 61 61 61 61 62 62 62 61 61 61 61 61 60 60 60 60 59 60 61 61 61 61 60 59 59 58 58 58 58 59 59 60 60 61 62 62 63 63 64 64 63 63 63 63 64 64 64 65 65 65 65 65 65 65 66 66 67 67 67 68 68 69 70 70 71 71 72 72 72 72 72 72 72 72 71
61 60 60 60 59 59 59 60 60 60 60 61 61 61 61 61 61 61 60 60 60 60 60 59 59 59 59 59 60 61 61 61 60 60 59 58 58 58 58 58 59 59 59 60 61 62 62 63 63 63 63 63 63 63 63 63 64 64 64 64 64 64 64 64 65 65 66 67 67 67 68 69 69 70 70 71 71 72 72 72 71 71 71 71 70 70
60 59 59 59 59 59 59 59 59 60 60 60 60 60 60 60 60 59 59 59 59 58 58 58 58 59 59 59 60 61 61 60 60 59 58 57 57 57 58 58 59 59 59 60 60 61 62 63 63 63 63 62 62 62 62 63 63 63 63 63 63 63 63 64 64 65 66 66 67 68 68 69 69 70 70 71 71 71 71 71 71 70 70 69 69 69
58 58 58 58 58 58 58 58 59 59 60 59 59 59 59 59 58 58 58 58 57 57 57 57 58 58 59 59 60 60 60 60 59 59 58 57 57 57 57 58 58 59 59 59 60 61 62 62 62 62 62 61 61 61 62 62 62 62 62 62 62 62 63 63 64 65 66 66 67 68 68 69 69 70 70 71 71 71 71 70 70 69 69 68 68 68
57 57 57 57 57 57 57 57 58 59 59 59 58 58 58 58 57 57 57 57 57 57 57 57 57 58 58 59 59 60 60 60 59 59 58 57 56 57 57 58 58 58 58 59 60 61 61 61 61 61 60 60 60 60 61 61 61 61 61 61 61 62 62 63 64 64 65 66 67 68 68 69 69 70 70 70 70 70 70 69 69 68 68 67 67 66
55 55 55 55 55 56 56 56 57 58 58 58 58 57 57 57 57 57 57 56 56 56 57 57 57 57 58 58 59 59 59 59 59 58 57 56 56 56 57 58 58 58 58 59 59 60 61 60 60 60 59 59 59 60 60 60 60 60 60 61 61 61 62 62 63 64 65 66 67 67 68 69 69 70 70 70 70 70 69 69 68 67 67 66 65 65
54 54 53 54 54 54 54 55 56 57 57 57 57 57 57 56 56 56 56 56 56 56 56 56 56 57 57 57 58 58 59 58 58 57 57 56 56 56 57 57 57 57 57 58 59 59 60 59 59 58 58 58 58 59 59 59 59 59 60 60 60 60 61 62 62 63 64 65 66 67 68 69 69 69 70 70 70 69 69 68 67 66 65 65 64 64
54 53 53 53 52 52 53 53 54 55 56 56 56 56 56 56 56 56 56 56 56 56 56 56 56 56 57 57 57 57 57 57 57 57 56 56 56 56 56 56 56 56 57 57 58 58 58 57 57 57 57 57 57 58 58 58 58 59 59 59 59 60 60 61 62 63 64 65 66 67 68 68 69 69 69 69 69 68 68 67 66 65 64 63 63 63
54 53 53 52 52 52 52 52 52 53 54 55 56 56 56 56 56 56 55 55 55 56 56 56 56 56 57 57 56 56 56 57 56 56 56 56 55 55 55 55 55 56 56 56 56 56 56 56 55 55 55 56 56 57 57 57 58 58 58 58 59 59 60 61 62 63 64 65 66 66 67 67 68 68 68 68 67 67 66 65 64 63 62 62 62 62
53 53 53 52 52 52 51 51 52 52 53 54 55 56 56 56 55 55 55 55 56 56 57 57 57 57 57 56 56 56 56 56 56 56 55 55 55 54 54 54 54 54 54 54 54 54 54 54 54 54 54 55 55 56 56 56 57 57 57 57 58 58 59 60 61 62 63 64 65 66 66 66 67 67 67 66 66 65 64 63 62 61 61 61 61 62
52 52 52 52 52 52 51 51 51 52 53 54 55 56 56 56 55 55 55 56 56 57 57 57 57 57 57 56 56 55 55 55 55 55 55 55 54 53 52 52 53 53 53 53 53 53 53 53 53 53 53 54 55 55 55 55 55 56 56 56 57 58 59 60 61 62 63 64 64 65 65 65 66 66 65 65 64 63 62 61 60 60 60 60 60 61
51 51 52 52 52 52 52 52 52 52 52 53 54 55 56 55 55 55 56 56 57 57 57 57 57 57 56 56 55 54 54 54 54 54 54 54 53 52 51 51 52 52 52 52 53 52 52 52 52 53 53 54 54 54 54 54 54 55 55 56 56 57 58 59 60 61 62 63 63 64 64 64 64 64 64 63 62 60 59 58 58 59 59 60 60 61
50 51 51 51 51 52 52 52 52 52 52 53 54 55 55 55 55 55 55 56 56 56 57 56 56 56 56 55 54 53 53 53 53 54 54 53 52 51 50 51 51 52 52 52 52 52 51 51 51 52 53 53 53 53 53 53 53 54 54 55 56 56 57 58 59 60 61 61 62 62 63 63 63 63 62 61 59 58 57 57 57 58 59 59 60 61
50 50 51 51 51 51 52 52 52 52 52 52 53 54 54 55 54 54 54 55 55 55 55 55 55 55 54 54 53 52 52 52 53 53 53 52 51 50 50 50 51 51 52 52 52 52 52 51 51 52 53 53 53 52 52 52 53 53 54 54 55 56 56 57 58 59 60 60 61 61 61 61 61 61 60 59 57 56 55 55 56 58 59 59 60 61
50 50 51 51 51 51 51 51 52 52 52 52 52 53 53 53 53 53 53 53 53 53 53 53 53 53 53 52 52 51 51 52 52 52 52 51 51 50 50 51 51 52 52 52 53 53 52 52 51 52 52 52 52 51 51 51 52 52 53 54 54 55 55 56 57 58 58 59 59 59 60 60 60 59 58 56 55 54 53 54 55 57 58 59 60 61
50 50 51 51 51 51 51 52 52 52 52 52 52 52 52 52 52 52 51 51 50 50 51 51 51 51 52 51 51 50 50 51 51 51 51 51 50 50 50 51 51 52 52 53 53 53 53 52 52 52 52 51 50 50 50 50 51 52 52 53 53 54 54 55 56 57 57 58 58 58 58 58 58 57 56 54 52 51 51 52 54 55 57 59 60 61
50 50 50 51 51 51 51 52 52 52 52 52 52 51 50 50 50 50 50 49 49 49 50 50 51 51 51 51 50 50 50 50 51 51 51 50 50 51 51 51 52 52 53 53 53 53 53 52 52 52 51 50 49 49 49 50 50 51 52 52 52 53 53 54 55 56 56 57 57 57 57 57 56 55 53 51 50 49 50 51 52 54 56 58 59 60
48 49 49 50 50 51 51 52 52 52 52 52 51 50 49 49 49 49 49 49 49 50 50 50 50 50 50 50 50 50 50 50 51 51 51 50 51 51 51 51 52 52 53 53 53 53 53 52 52 51 51 50 49 48 49 49 50 50 51 51 52 52 53 53 54 55 56 56 56 56 56 56 54 53 50 49 48 47 48 49 51 53 55 57 58 59
47 47 48 49 50 50 51 51 51 52 52 51 50 50 49 49 49 49 50 50 50 50 50 50 50 49 49 49 49 50 50 50 50 50 50 51 51 51 51 51 52 52 53 53 53 53 52 52 51 51 50 49 49 48 48 49 49 50 50 50 51 51 52 53 54 54 55 55 55 55 55 54 53 50 48 46 46 46 47 48 50 52 54 56 57 57
44 45 46 47 48 49 50 50 50 51 51 50 50 49 49 49 50 50 50 51 51 51 50 50 50 49 49 49 49 50 50 50 50 50 50 51 51 51 51 51 52 52 52 52 52 52 52 51 51 50 49 49 49 48 48 48 49 49 49 49 50 50 51 52 53 53 54 54 54 54 54 52 50 48 46 44 44 44 45 47 49 51 53 54 55 53
42 43 44 45 46 47 48 49 49 50 50 50 50 49 50 50 50 51 51 51 51 50 50 50 49 49 49 48 48 48 48 48 49 49 50 50 50 51 51 51 51 51 51 52 52 52 52 51 50 50 49 49 48 48 48 48 48 48 48 49 49 50 51 52 52 52 53 53 53 53 52 50 48 46 44 43 43 43 44 46 48 50 52 53 52 48
40 41 42 43 44 45 46 47 48 49 50 50 50 50 50 50 51 51 51 51 50 50 49 49 48 48 47 47 46 46 46 46 47 48 49 49 50 50 50 50 50 51 51 51 51 51 51 51 50 50 49 49 48 48 47 47 47 47 48 48 48 49 50 51 51 51 52 52 52 52 50 48 45 43 42 41 41 42 44 45 47 49 51 51 48 42
39 40 41 42 43 44 45 46 47 48 49 50 50 50 50 50 51 51 51 51 51 50 49 48 48 47 46 45 44 44 44 45 46 47 48 48 49 49 50 50 50 50 50 51 51 51 51 50 50 50 49 49 48 48 47 46 46 47 47 48 48 49 50 50 50 50 51 51 51 50 48 46 43 41 40 40 40 41 43 45 47 49 49 48 43 37
38 39 40 41 42 43 44 45 46 47 48 49 50 50 50 51 51 52 52 52 51 50 49 48 48 47 46 45 44 44 44 45 46 47 47 48 49 49 49 50 50 50 50 51 51 50 50 50 50 49 49 49 48 47 46 45 45 46 47 48 49 49 49 49 49 49 50 50 49 48 46 44 41 40 39 39 39 41 43 45 46 48 47 44 39 32
38 39 40 41 41 42 43 44 45 46 47 48 49 50 50 51 52 52 52 52 52 51 51 50 49 48 46 45 45 45 45 46 46 47 48 48 49 49 49 50 50 50 50 50 50 50 50 50 50 49 49 48 48 47 45 45 44 45 46 48 49 49 48 48 48 48 49 48 48 46 44 42 40 38 37 37 38 40 42 44 46 46 45 41 35 29
40 41 41 42 42 42 43 43 44 45 46 47 48 49 50 51 51 52 53 53 53 52 51 51 50 49 48 46 45 45 46 46 47 47 48 48 49 49 49 50 50 50 51 50 50 50 50 50 49 49 48 48 47 46 45 44 44 45 46 47 48 49 48 48 47 47 47 47 46 44 42 40 38 37 36 36 37 39 41 43 44 44 43 38 31 27
42 43 43 43 43 43 43 44 44 44 45 46 46 47 48 49 50 51 52 52 52 52 51 50 50 49 48 46 46 46 46 46 47 47 48 49 49 49 49 49 50 50 51 51 51 50 50 50 49 48 48 47 46 45 44 44 44 45 46 47 48 48 48 47 47 46 46 45 44 42 40 38 37 36 35 35 36 38 40 42 43 42 40 34 29 25
44 44 44 45 45 45 45 45 44 44 44 44 45 45 46 47 48 49 49 50 50 49 49 49 48 48 47 46 46 46 46 46 47 47 48 48 49 49 49 50 50 50 51 51 51 51 50 49 48 48 47 46 46 44 44 44 44 45 46 47 47 47 47 46 46 46 45 44 42 40 38 36 35 34 34 34 35 37 39 40 41 40 37 31 27 25
44 45 45 45 45 45 45 45 45 44 44 44 43 44 44 45 46 46 47 47 47 46 47 47 47 47 46 46 46 46 46 46 47 47 47 48 48 49 49 50 50 51 51 51 51 51 50 49 48 47 47 46 44 44 43 44 44 45 46 46 46 46 45 45 45 45 44 43 41 38 36 35 34 33 33 33 34 36 37 39 39 38 34 29 26 25
45 45 45 45 45 45 45 45 45 44 43 43 42 42 42 43 43 44 44 44 44 44 44 45 45 45 45 45 45 46 46 46 46 46 47 47 48 49 49 50 50 51 51 51 51 51 50 49 48 47 46 45 44 43 43 43 44 45 46 46 46 45 45 44 44 43 43 41 39 37 35 34 34 33 33 33 33 35 36 36 37 35 32 28 26 26
44 44 44 44 44 44 44 44 44 43 42 41 41 41 41 42 42 42 42 42 42 43 43 44 44 45 45 45 45 46 46 46 46 46 46 47 48 48 49 50 50 51 51 51 51 50 49 49 48 47 46 45 44 43 43 43 44 45 45 45 45 44 44 43 43 42 41 40 38 36 35 34 34 33 33 33 33 34 34 34 34 33 30 27 27 28
44 44 44 43 43 43 43 43 43 42 41 41 40 40 41 41 41 42 42 42 42 43 43 44 44 44 44 44 45 45 45 45 46 46 46 47 47 48 49 49 49 50 50 50 50 49 49 48 47 46 45 44 44 43 44 44 44 44 44 45 44 44 43 43 42 41 40 39 37 35 34 34 33 33 33 33 33 34 33 32 31 30 28 27 28 30
43 43 43 43 43 43 42 42 41 41 40 40 40 40 41 41 42 42 42 42 42 43 43 44 44 44 44 44 44 44 44 45 45 45 46 47 47 48 48 48 49 49 49 49 49 49 48 47 47 45 44 44 43 44 44 44 44 44 44 44 44 44 43 42 41 40 39 38 36 34 34 33 33 32 32 33 34 34 32 30 28 27 27 28 30 31
Wind_Direction
266 265 262 261 261 261 262 263 264 265 265 265 265 265 265 266 266 267 268 269 270 271 271 272 272 273 273 273 274 274 275 277 278 279 280 281 282 282 283 283 283 282 281 280 279 278 277 276 275 274 274 274 274 274 274 274 273 273 271 271 270 270 269 269 269 269 270 270 270 270 271 271 271 271 272 272 272 272 272 272 272 272 272 271 271 270
266 264 262 261 261 262 263 263 264 265 265 265 266 266 266 266 267 268 268 269 270 271 271 272 272 273 273 273 273 274 275 276 277 278 279 280 281 282 283 283 283 282 282 280 279 278 277 276 275 274 274 274 275 275 275 274 273 272 271 270 269 269 269 269 269 269 270 270 271 271 271 272 272 273 273 273 273 274 274 274 273 273 273 272 272 271
266 264 262 261 261 262 263 264 265 265 266 266 266 267 267 267 268 268 269 269 270 270 271 272 272 272 272 273 273 273 274 275 276 277 279 280 281 282 282 283 283 282 281 280 279 278 277 276 275 274 274 275 275 275 275 274 273 271 270 269 268 268 268 269 269 269 270 271 271 271 272 272 273 273 274 274 275 275 275 274 274 274 273 273 272 272
266 264 263 262 262 262 264 265 265 266 266 267 267 267 268 268 269 269 270 270 270 271 271 271 272 272 272 272 272 273 274 275 276 277 278 279 280 281 282 282 282 282 281 280 279 278 276 275 275 275 275 275 275 275 275 273 272 270 269 268 268 268 268 269 269 270 270 271 271 272 273 273 274 274 275 275 275 276 275 275 275 274 274 273 273 272
266 265 263 263 263 263 264 265 266 267 267 268 268 268 269 269 270 270 270 270 271 271 271 271 272 272 272 272 272 272 273 274 275 276 277 278 279 280 281 281 281 281 280 279 278 277 276 276 275 275 275 276 275 275 274 273 271 270 269 268 268 268 268 269 269 270 271 271 272 273 273 274 275 275 276 276 276 276 276 276 275 275 274 274 273 273
266 265 264 264 264 264 265 266 266 267 268 269 269 269 270 270 270 270 270 271 271 271 271 271 271 272 272 272 272 272 273 273 274 275 277 278 279 279 280 280 281 280 280 279 278 277 276 276 276 276 276 276 275 275 273 272 271 269 269 268 268 269 269 269 270 270 271 272 273 273 274 275 275 276 276 277 277 277 276 276 276 275 275 274 274 274
266 265 265 265 265 265 266 266 267 268 269 269 270 270 270 270 270 270 271 271 271 271 271 271 271 272 272 272 272 272 272 273 274 275 276 277 278 278 279 280 280 280 279 279 278 277 276 276 276 276 276 276 275 274 273 272 270 269 269 269 269 269 269 270 270 271 272 272 273 274 275 275 276 276 277 277 277 277 277 276 276 276 275 275 275 275
266 265 265 265 266 266 266 267 268 269 269 270 270 270 270 270 270 270 270 271 271 271 271 271 271 272 272 272 272 272 272 273 274 274 275 276 277 278 278 279 279 279 279 278 278 277 277 277 277 277 277 276 275 274 273 272 270 270 270 270 270 270 270 271 271 272 272 273 274 275 276 276 277 277 278 278 278 278 277 277 277 277 276 276 276 277
266 266 266 266 266 267 267 267 268 269 270 270 271 271 271 271 270 270 270 270 270 271 271 271 272 272 272 272 272 272 272 273 273 274 274 275 276 277 278 278 279 279 278 278 278 277 277 277 277 278 277 277 276 274 273 272 271 270 270 270 271 271 271 271 272 273 273 274 275 276 276 277 278 278 278 278 278 278 278 278 278 278 278 278 278 278
266 266 266 266 266 267 267 268 268 269 270 270 270 271 271 271 271 270 270 270 270 271 271 271 272 272 272 272 272 272 272 273 273 273 274 275 276 277 278 278 279 278 278 278 277 277 278 278 278 278 278 277 276 275 273 272 271 271 271 271 271 272 272 272 273 273 274 275 276 277 277 278 278 279 279 279 279 279 279 279 279 279 279 279 279 280
267 267 267 267 267 267 268 268 269 269 269 270 270 270 271 271 271 271 270 270 271 271 271 272 272 272 272 272 272 272 272 272 273 273 274 275 276 277 278 278 278 278 278 277 277 278 278 278 279 279 278 278 276 275 274 273 272 272 272 272 272 273 273 273 274 274 275 276 277 278 278 279 279 279 280 280 280 280 280 280 280 280 281 281 281 281
267 267 267 267 267 268 268 268 269 269 270 270 270 270 270 270 270 270 271 271 271 271 272 272 272 272 272 272 272 272 272 272 272 273 274 275 276 277 278 278 278 278 278 277 278 278 278 279 279 279 279 278 277 276 274 274 273 273 273 273 273 274 274 274 275 275 276 277 278 278 279 279 280 280 280 280 280 281 281 281 282 282 282 282 282 282
268 268 268 268 268 268 269 269 269 269 270 270 270 270 270 270 270 270 270 271 271 272 272 272 272 272 272 272 272 272 272 272 272 273 274 275 276 277 278 278 278 278 277 277 278 278 279 279 280 280 279 279 277 276 275 274 274 274 274 274 274 275 275 275 276 276 277 278 278 279 280 280 281 281 281 281 282 282 282 283 283 283 283 284 283 283
268 268 268 268 269 269 269 269 270 270 270 270 270 270 269 269 270 270 271 271 271 271 272 272 272 272 272 272 272 272 271 272 272 273 274 275 276 277 277 278 278 278 277 278 278 278 279 279 280 280 280 279 278 277 276 275 275 275 275 275 275 276 276 276 276 277 278 278 279 280 281 281 281 282 282 282 283 283 284 284 284 284 284 284 284 284
269 269 269 269 269 269 269 270 270 270 270 270 270 269 269 269 270 270 271 271 271 271 271 271 272 272 272 272 271 271 271 271 272 273 274 275 276 277 277 277 277 278 278 278 278 278 279 280 280 280 280 280 279 277 277 276 276 276 276 276 276 276 277 277 277 278 279 279 280 281 282 282 282 283 283 283 284 284 285 285 285 285 285 285 285 285
269 269 269 269 269 269 270 270 270 270 270 270 270 270 270 270 270 271 271 271 271 271 271 271 271 271 271 271 271 271 271 271 272 273 274 275 276 276 277 277 277 277 278 278 278 279 279 280 280 281 281 280 279 278 277 277 276 276 276 277 277 277 278 278 278 279 280 281 281 282 283 283 283 284 284 285 285 285 286 286 286 286 286 286 285 285
269 269 269 269 269 270 270 270 270 270 271 270 270 270 270 270 271 271 272 272 272 272 271 271 271 271 271 271 271 271 271 271 272 273 274 275 276 276 277 277 277 277 278 278 278 279 279 280 281 281 281 281 280 279 278 277 277 277 277 277 278 278 279 279 280 280 281 282 282 283 283 284 284 285 285 286 286 286 286 287 287 286 286 286 285 285
269 269 269 270 270 270 270 270 270 270 270 270 270 270 271 271 271 272 272 272 272 272 272 272 271 271 271 270 270 271 271 271 272 273 274 275 276 276 277 277 277 277 277 278 278 279 280 281 281 282 282 281 280 279 278 278 278 278 278 278 278 279 280 280 281 282 282 283 283 284 284 285 285 286 286 286 287 287 287 287 287 287 286 286 285 285
269 269 269 270 270 270 270 270 270 270 270 270 270 270 271 271 271 272 272 272 272 272 272 271 271 271 271 270 270 271 271 271 272 273 274 275 276 276 276 276 276 277 277 277 278 279 280 281 282 282 282 281 280 279 278 278 278 278 278 279 279 280 281 282 282 283 283 284 284 285 285 286 286 287 287 287 287 288 288 288 288 287 286 285 285 284
269 269 269 269 269 270 270 270 270 270 270 270 270 270 271 271 271 272 272 272 272 271 271 271 271 271 271 270 270 271 271 272 273 273 274 275 275 276 276 276 276 276 277 277 278 280 281 282 282 282 282 281 280 279 279 278 278 279 279 280 281 281 282 283 283 284 285 285 285 286 286 287 287 287 288 288 288 288 288 288 288 287 286 285 284 284
269 269 269 269 269 269 269 269 269 269 269 269 269 270 270 271 271 271 272 272 271 271 271 271 271 270 270 270 270 271 272 272 273 273 274 275 275 275 275 275 275 276 277 278 279 280 281 282 282 282 281 280 280 279 279 279 279 279 280 281 282 282 283 284 285 285 286 286 286 287 287 288 288 288 288 288 289 289 289 288 288 287 286 284 283 283
269 269 269 269 269 269 269 269 269 269 269 269 269 270 270 270 271 271 271 271 271 271 271 270 270 270 270 270 271 271 272 272 273 273 274 274 275 275 275 275 275 276 277 278 280 281 282 282 282 282 281 280 279 279 279 279 280 280 281 282 283 284 284 285 286 286 287 287 287 288 288 288 288 289 289 289 289 289 289 289 288 287 285 284 283 283
269 269 269 269 269 269 269 269 269 269 269 269 269 269 270 270 270 270 270 270 271 271 271 271 270 271 271 271 271 271 272 272 273 273 274 274 275 275 275 275 275 276 278 279 281 282 282 282 282 281 280 280 279 279 279 280 280 281 282 283 284 285 285 286 287 287 288 288 288 289 289 289 289 289 289 289 290 290 289 289 288 287 285 284 283 283
268 268 269 269 269 269 269 269 270 270 269 269 269 269 269 270 270 270 270 270 270 271 271 271 271 271 271 271 271 271 272 272 272 273 274 274 275 275 275 275 276 277 279 280 281 282 282 281 281 280 280 280 279 280 280 280 281 282 283 284 285 285 286 287 287 288 288 289 289 289 289 289 290 290 290 290 290 290 290 290 289 287 285 284 283 283
267 267 268 268 269 269 269 269 270 270 270 270 269 269 269 270 270 270 270 270 271 271 271 272 272 272 272 272 272 272 272 272 272 273 274 274 274 274 275 275 277 278 280 281 281 281 281 281 280 280 280 280 280 280 280 281 282 283 284 285 285 286 287 287 288 288 289 289 289 289 290 290 290 290 290 291 291 291 291 290 289 287 285 284 283 284
267 267 267 267 268 268 268 269 269 270 270 270 270 270 270 270 270 270 271 271 271 272 272 273 273 273 273 273 272 272 272 272 272 273 274 274 274 274 274 276 277 279 280 281 281 281 281 280 280 280 280 280 280 280 281 282 283 284 285 285 286 287 288 288 289 289 289 289 289 290 290 290 290 291 291 291 292 292 291 291 289 287 285 284 284 286
268 268 267 267 267 267 268 268 268 269 269 270 270 270 270 270 271 271 272 272 272 272 272 272 273 273 273 272 272 271 271 271 272 273 273 273 273 273 274 276 277 279 280 280 281 280 280 280 280 280 280 280 280 281 281 282 283 284 285 286 287 288 288 289 289 289 289 289 290 290 290 290 291 291 292 292 292 292 292 291 289 287 286 285 285 287
270 269 268 268 267 267 267 267 268 268 269 269 270 270 270 271 271 272 272 272 272 272 272 272 273 273 272 272 271 271 271 271 271 272 272 273 273 273 274 276 278 279 280 280 280 280 280 280 280 280 280 280 280 281 282 283 284 285 286 287 287 288 288 289 289 289 289 290 290 290 291 291 291 292 292 293 293 293 292 291 289 287 286 286 287 289
271 270 270 269 269 268 267 267 268 268 269 269 270 270 271 271 272 272 272 272 272 272 272 273 273 272 272 271 271 270 270 270 271 272 272 272 272 273 275 276 278 279 279 279 280 280 280 280 281 280 280 280 281 282 283 284 285 286 286 287 288 288 289 289 289 289 290 290 290 291 291 291 292 292 293 293 294 293 292 291 289 287 286 287 289 291
272 272 271 271 271 270 269 269 269 269 269 270 270 271 271 272 272 272 272 272 272 272 272 272 272 272 271 271 270 270 270 270 270 270 271 271 271 273 275 276 277 278 279 279 280 280 280 281 281 281 280 281 281 282 283 284 285 286 286 287 288 288 289 289 289 290 290 290 291 291 292 292 293 293 294 294 294 293 292 290 288 287 287 288 290 292
272 272 272 272 272 272 271 271 271 270 271 271 271 272 272 272 272 272 272 272 273 273 272 272 272 271 270 270 269 269 269 269 269 269 270 270 271 273 275 276 277 278 278 279 280 281 281 281 281 280 281 281 282 283 284 285 285 286 286 287 288 288 289 289 289 290 290 290 291 292 292 293 293 294 294 294 294 293 291 289 288 288 288 290 292 294
273 273 273 273 273 273 272 272 272 272 272 272 272 272 273 273 273 273 273 273 273 273 272 272 271 271 270 269 269 268 268 268 268 268 269 270 271 273 275 276 276 277 278 279 280 281 281 281 280 280 280 281 282 283 284 284 285 286 286 287 288 289 289 289 290 290 290 291 291 292 292 293 293 294 294 294 294 292 290 289 288 288 289 291 294 296
273 273 273 273 273 272 272 272 272 272 272 271 271 272 272 273 273 273 273 273 273 273 272 271 270 270 269 268 267 267 267 267 268 269 269 270 272 273 274 275 276 278 279 280 280 281 281 280 280 280 280 281 282 283 284 284 285 285 286 287 288 289 289 290 290 290 291 291 292 292 293 293 294 294 294 294 293 291 289 288 288 289 291 293 296 299
273 273 273 273 272 272 272 272 271 271 271 270 270 271 271 272 273 273 273 273 272 271 271 270 269 268 267 267 266 266 267 268 269 269 270 271 272 273 274 275 276 278 279 280 280 280 280 280 280 280 281 281 282 283 284 284 285 286 287 288 289 290 290 290 291 291 291 292 292 293 293 293 294 294 294 293 291 289 288 288 288 290 292 295 298 300
273 273 273 272 272 271 271 271 270 270 270 270 270 270 270 271 271 272 271 271 270 269 268 267 267 267 266 266 266 267 268 269 269 270 270 271 272 273 274 275 276 278 278 279 280 280 280 280 280 281 281 282 282 283 283 284 285 286 288 289 290 291 291 291 291 291 292 292 293 293 293 293 293 293 293 291 289 287 286 287 288 290 293 296 299 302
273 273 272 272 272 271 271 270 270 270 270 270 270 269 269 269 269 269 269 268 267 266 266 265 265 266 266 267 267 268 269 269 269 269 269 270 271 272 273 275 276 277 277 278 279 279 280 280 280 281 281 282 282 283 283 284 286 287 289 290 291 292 292 292 292 292 292 293 293 293 293 293 293 293 291 289 287 286 286 287 289 291 294 297 301 303
273 273 272 272 271 271 271 270 270 270 269 269 269 268 268 267 266 266 265 265 265 265 265 265 266 266 267 268 269 269 269 269 268 268 269 269 271 272 273 274 275 276 276 277 278 279 279 280 281 281 282 282 283 283 284 285 287 288 290 291 292 292 293 292 292 292 293 293 293 293 293 293 293 292 290 287 285 285 285 287 290 293 296 299 302 304
274 274 273 273 272 272 271 271 270 269 269 268 267 266 265 265 264 263 263 263 264 265 265 266 267 268 269 269 269 269 269 268 267 267 268 269 270 271 272 273 274 275 276 277 278 279 279 280 281 282 282 283 284 284 285 286 288 290 291 292 293 293 293 293 293 293 293 294 294 294 294 293 292 291 288 286 284 284 286 288 291 294 297 300 302 303
277 276 276 275 274 273 272 271 270 269 268 266 265 264 264 263 262 262 262 263 264 265 266 268 269 270 270 270 270 269 268 267 267 267 268 269 269 270 271 272 273 274 275 277 278 279 280 281 281 282 283 283 284 285 286 288 290 291 292 293 293 293 293 293 293 293 294 294 294 293 293 292 291 289 286 285 284 285 287 290 293 295 299 301 302 300
280 280 279 278 277 276 275 273 272 270 268 266 265 263 262 262 261 261 261 262 263 264 266 267 269 270 271 271 270 269 268 267 267 268 268 269 270 270 271 272 273 274 275 276 278 279 280 281 282 283 284 284 285 286 287 289 291 292 293 294 294 294 293 294 294 294 293 293 293 293 293 291 290 287 285 284 284 286 289 291 294 297 300 302 301 297
284 283 282 281 280 278 277 276 274 272 270 268 266 264 262 260 260 260 260 260 261 262 264 266 268 269 270 270 270 269 269 268 268 269 269 270 270 271 272 273 273 275 276 277 278 279 281 282 283 284 284 285 286 287 289 291 292 294 294 294 294 294 294 294 294 294 293 293 293 293 292 291 288 286 284 284 285 287 290 293 296 299 301 302 299 293
287 287 286 285 283 282 280 278 277 275 273 271 268 265 263 260 259 258 259 259 260 261 262 264 266 267 268 269 269 269 269 269 270 270 270 271 271 272 272 273 274 275 276 277 278 280 281 282 283 284 285 285 286 288 290 292 294 295 295 295 294 294 294 294 294 293 293 293 293 292 291 289 287 285 283 284 286 288 291 294 298 301 302 301 296 288
289 288 288 287 286 285 284 282 280 278 276 273 270 268 264 261 259 258 258 258 258 259 260 262 264 266 267 268 268 269 269 270 270 271 271 271 272 272 273 273 274 275 276 277 279 280 281 282 283 284 285 286 287 289 292 294 295 295 295 295 294 294 294 294 293 293 293 293 292 292 291 288 286 284 283 284 286 289 292 296 299 302 302 299 293 281
288 288 288 288 288 287 287 285 283 281 278 275 272 269 266 263 261 259 258 257 258 259 260 261 262 264 266 267 268 268 269 270 270 271 271 272 272 273 273 274 275 276 277 278 279 280 282 283 284 285 286 287 289 291 293 295 296 295 295 294 294 294 294 294 294 293 293 292 292 291 289 287 284 282 283 284 287 291 294 297 300 302 301 297 287 274
288 288 288 288 288 288 287 287 285 283 280 277 274 270 267 264 262 260 259 258 258 259 260 261 262 264 266 267 268 268 269 270 270 271 272 272 272 273 274 274 275 276 277 278 280 281 282 283 284 285 286 288 290 292 295 296 296 295 295 294 294 294 294 294 294 294 293 293 292 290 288 285 283 282 283 285 288 292 295 298 301 301 299 293 281 266
288 288 288 288 288 288 288 287 287 285 283 280 276 272 269 266 264 263 261 260 260 260 261 262 263 265 266 267 267 268 269 270 271 271 272 272 273 273 274 275 276 276 278 279 280 281 283 284 285 286 287 289 291 293 295 296 296 295 294 294 294 294 294 294 294 294 293 293 292 290 286 284 282 282 283 286 289 293 296 299 301 300 296 287 273 259
288 288 288 289 289 289 289 288 288 287 285 282 278 275 271 269 267 265 264 263 262 262 262 263 264 265 266 267 268 269 270 270 271 271 272 272 273 274 274 275 276 277 278 279 281 282 283 285 286 287 288 290 292 294 296 296 296 295 294 294 294 294 294 294 294 293 293 293 291 289 286 283 281 282 283 287 290 294 297 299 300 299 293 280 265 251
287 288 288 289 289 289 289 288 287 287 285 282 279 275 272 270 268 267 266 265 264 264 264 264 265 266 267 267 268 269 270 271 271 272 272 272 273 274 274 275 276 277 278 280 281 283 284 285 286 288 289 291 293 295 296 296 295 295 294 294 294 294 294 294 294 293 293 292 291 288 285 283 282 283 284 287 291 294 297 299 299 296 288 273 256 245
286 287 287 288 288 288 288 287 286 285 283 280 276 273 271 270 269 268 267 266 265 265 265 265 266 267 267 268 269 270 270 271 271 272 272 272 273 273 274 275 276 277 279 280 282 283 285 286 287 288 290 292 294 295 295 295 295 294 294 294 294 294 294 294 293 293 293 292 290 288 285 283 283 284 285 288 291 295 298 299 298 293 282 265 249 240
285 286 286 287 287 287 287 286 284 282 280 276 272 269 268 267 267 266 266 266 265 265 265 266 267 268 269 269 270 270 271 271 272 272 272 272 272 273 274 275 276 278 279 281 282 284 285 286 287 289 290 292 294 295 295 295 294 294 294 294 294 294 294 294 293 293 292 291 289 286 284 283 283 284 285 288 292 296 299 300 297 289 276 258 243 236
284 285 285 285 285 285 285 284 283 280 277 274 270 266 265 264 265 265 265 265 265 265 266 267 268 269 270 270 270 270 271 271 271 271 271 272 272 273 274 275 276 278 280 281 282 284 284 285 287 288 291 293 294 294 294 295 295 294 294 294 294 294 294 293 293 292 291 290 288 285 283 282 282 283 285 288 293 297 301 300 296 285 269 251 239 233
Height
5531 5531 5531 5531 5532 5532 5531 5531 5531 5530 5529 5529 5529 5528 5528 5529 5530 5531 5531 5531 5531 5531 5531 5531 5531 5530 5530 5529 5529 5528 5527 5527 5526 5526 5526 5525 5525 5524 5523 5523 5522 5521 5521 5520 5520 5519 5518 5518 5517 5517 5516 5516 5516 5516 5515 5515 5515 5514 5514 5514 5514 5514 5514 5514 5514 5514 5514 5514 5514 5514 5514 5514 5514 5514 5513 5513 5513 5512 5512 5512 5512 5511 5511 5511 5511 5511
5525 5525 5526 5526 5526 5526 5526 5526 5525 5525 5524 5523 5523 5523 5523 5523 5524 5525 5525 5526 5525 5525 5525 5525 5525 5525 5524 5524 5523 5522 5521 5521 5521 5521 5520 5520 5519 5518 5518 5517 5516 5516 5516 5515 5514 5513 5513 5512 5512 5511 5511 5511 5510 5510 5510 5509 5509 5509 5508 5508 5508 5508 5508 5508 5508 5508 5508 5508 5508 5508 5508 5508 5507 5507 5507 5507 5506 5506 5506 5505 5505 5505 5504 5504 5504 5504
5520 5520 5520 5521 5521 5521 5521 5520 5520 5519 5518 5518 5518 5517 5517 5518 5518 5519 5520 5520 5520 5520 5520 5519 5519 5519 5519 5518 5517 5517 5516 5516 5515 5515 5514 5514 5513 5513 5512 5512 5511 5511 5510 5509 5509 5508 5507 5507 5506 5506 5506 5505 5505 5504 5504 5503 5503 5503 5503 5502 5502 5502 5502 5502 5502 5502 5502 5502 5502 5502 5502 5501 5501 5501 5501 5500 5500 5499 5499 5498 5498 5497 5497 5497 5496 5496
5515 5514 5515 5515 5515 5515 5515 5515 5514 5513 5513 5512 5512 5512 5512 5512 5513 5513 5514 5514 5514 5514 5514 5514 5513 5513 5513 5512 5512 5511 5510 5510 5509 5509 5509 5508 5508 5507 5507 5506 5506 5505 5505 5504 5503 5503 5502 5502 5501 5501 5500 5500 5499 5498 5498 5498 5497 5497 5497 5497 5497 5496 5496 5496 5496 5496 5496 5496 5496 5496 5495 5495 5495 5494 5494 5493 5493 5492 5492 5491 5491 5490 5490 5490 5489 5489
5510 5509 5509 5510 5510 5510 5510 5509 5508 5508 5507 5507 5507 5507 5507 5507 5507 5507 5507 5508 5508 5508 5508 5507 5507 5507 5507 5507 5506 5506 5505 5504 5504 5503 5503 5503 5502 5502 5501 5501 5500 5500 5499 5499 5498 5497 5497 5496 5496 5495 5495 5494 5493 5493 5492 5492 5492 5491 5491 5491 5491 5491 5491 5491 5490 5490 5490 5490 5489 5489 5489 5488 5488 5487 5487 5487 5486 5486 5485 5484 5484 5483 5483 5482 5482 5481
5504 5504 5504 5504 5504 5504 5504 5504 5503 5502 5502 5501 5501 5501 5501 5501 5501 5501 5501 5502 5502 5502 5501 5501 5501 5501 5501 5501 5501 5500 5499 5498 5498 5498 5498 5497 5497 5496 5496 5496 5495 5494 5494 5493 5492 5492 5491 5491 5491 5490 5489 5488 5488 5487 5487 5486 5486 5486 5486 5486 5485 5485 5485 5485 5484 5484 5484 5483 5483 5483 5482 5482 5481 5481 5481 5480 5479 5479 5478 5477 5477 5476 5476 5475 5474 5474
5499 5498 5499 5499 5499 5499 5498 5498 5498 5497 5496 5496 5496 5496 5496 5496 5496 5496 5496 5496 5496 5496 5496 5496 5496 5496 5496 5495 5495 5494 5493 5493 5493 5492 5492 5492 5491 5491 5491 5490 5489 5489 5488 5488 5487 5486 5486 5486 5485 5484 5484 5483 5482 5481 5481 5481 5480 5480 5480 5480 5479 5479 5479 5478 5478 5478 5477 5477 5477 5476 5476 5475 5475 5474 5474 5473 5472 5472 5471 5470 5469 5469 5468 5467 5467 5466
5493 5493 5493 5493 5493 5493 5493 5493 5492 5491 5491 5490 5490 5490 5490 5490 5490 5490 5490 5490 5490 5490 5490 5489 5490 5490 5490 5489 5489 5488 5488 5487 5487 5487 5486 5486 5486 5486 5485 5484 5484 5483 5483 5482 5481 5481 5481 5480 5479 5479 5478 5477 5476 5476 5475 5475 5475 5474 5474 5474 5473 5473 5473 5472 5472 5472 5471 5471 5470 5470 5469 5469 5468 5467 5467 5466 5466 5465 5464 5463 5462 5461 5460 5460 5459 5458
5487 5487 5488 5488 5488 5487 5487 5487 5487 5486 5485 5484 5484 5484 5484 5484 5484 5484 5484 5484 5484 5484 5484 5483 5484 5484 5484 5483 5483 5483 5482 5482 5482 5481 5481 5481 5480 5480 5479 5479 5478 5478 5477 5476 5476 5475 5475 5474 5474 5473 5472 5472 5471 5470 5470 5469 5469 5468 5468 5468 5467 5467 5466 5466 5466 5466 5465 5465 5464 5463 5463 5462 5461 5461 5460 5459 5458 5457 5456 5456 5455 5454 5453 5452 5451 5450
5482 5482 5482 5482 5482 5482 5481 5481 5481 5481 5480 5479 5478 5478 5478 5478 5477 5478 5478 5478 5478 5478 5478 5478 5478 5478 5478 5477 5477 5477 5477 5477 5476 5476 5476 5475 5475 5474 5474 5473 5473 5472 5472 5471 5470 5470 5469 5469 5468 5467 5467 5466 5465 5465 5464 5463 5463 5462 5462 5461 5461 5461 5461 5460 5460 5459 5459 5458 5457 5457 5456 5455 5455 5454 5453 5452 5451 5450 5449 5448 5447 5446 5445 5444 5443 5441
5477 5477 5476 5476 5476 5476 5476 5475 5475 5475 5474 5473 5473 5472 5472 5472 5471 5471 5471 5472 5472 5472 5472 5472 5472 5472 5472 5472 5471 5471 5471 5471 5471 5471 5470 5470 5469 5469 5468 5467 5467 5466 5466 5465 5465 5464 5464 5463 5462 5462 5461 5460 5459 5459 5458 5457 5457 5456 5456 5456 5455 5455 5454 5454 5453 5453 5452 5452 5451 5450 5450 5449 5448 5447 5446 5445 5444 5443 5441 5440 5439 5438 5436 5436 5434 5433
5471 5471 5471 5471 5470 5470 5470 5470 5469 5469 5468 5468 5467 5466 5466 5466 5466 5466 5465 5466 5466 5466 5466 5466 5466 5467 5467 5466 5466 5466 5466 5466 5465 5465 5464 5464 5463 5463 5462 5462 5461 5461 5460 5460 5459 5458 5458 5457 5456 5456 5455 5454 5453 5453 5452 5451 5451 5450 5450 5449 5449 5448 5448 5447 5447 5446 5446 5445 5444 5444 5443 5442 5441 5440 5439 5438 5437 5436 5434 5433 5431 5430 5429 5427 5426 5424
5465 5465 5465 5465 5465 5465 5464 5464 5463 5463 5462 5462 5461 5461 5460 5460 5460 5460 5460 5460 5460 5460 5460 5460 5461 5461 5461 5461 5461 5460 5460 5460 5460 5459 5459 5458 5458 5457 5457 5456 5456 5455 5455 5454 5453 5453 5452 5451 5451 5450 5449 5448 5448 5447 5446 5446 5445 5444 5444 5443 5442 5442 5442 5441 5441 5440 5439 5439 5438 5437 5436 5435 5434 5433 5432 5431 5429 5428 5426 5425 5423 5422 5421 5419 5418 5416
5459 5459 5459 5459 5459 5459 5459 5458 5457 5457 5456 5456 5456 5455 5454 5454 5454 5454 5455 5455 5455 5455 5455 5454 5455 5456 5456 5456 5455 5455 5454 5454 5454 5454 5454 5453 5452 5452 5451 5450 5450 5450 5450 5449 5448 5447 5447 5446 5445 5444 5444 5443 5442 5441 5441 5440 5439 5438 5437 5437 5436 5436 5435 5435 5434 5433 5433 5432 5431 5430 5429 5428 5427 5426 5425 5423 5422 5421 5419 5417 5416 5414 5412 5411 5409 5408
5454 5454 5453 5453 5453 5453 5453 5453 5452 5451 5451 5450 5450 5449 5449 5448 5449 5449 5450 5450 5449 5449 5449 5449 5450 5450 5450 5450 5450 5449 5449 5448 5448 5448 5448 5448 5447 5446 5446 5445 5445 5444 5444 5444 5443 5441 5441 5440 5439 5438 5438 5437 5436 5435 5435 5434 5433 5432 5431 5431 5430 5430 5429 5428 5427 5427 5426 5425 5424 5423 5422 5421 5420 5419 5417 5416 5415 5413 5411 5410 5408 5406 5405 5403 5401 5400
5448 5448 5448 5448 5448 5448 5447 5447 5446 5446 5445 5445 5444 5443 5443 5443 5443 5444 5445 5444 5444 5444 5444 5444 5444 5445 5445 5445 5444 5443 5443 5442 5443 5443 5443 5442 5441 5441 5441 5440 5439 5439 5439 5438 5437 5436 5435 5435 5434 5433 5432 5431 5430 5430 5429 5428 5427 5426 5425 5424 5424 5423 5422 5422 5421 5420 5419 5418 5418 5417 5416 5414 5413 5412 5410 5409 5407 5406 5404 5402 5400 5398 5397 5395 5393 5392
5442 5442 5442 5442 5442 5442 5442 5441 5441 5440 5439 5439 5438 5437 5438 5438 5438 5439 5439 5439 5439 5438 5438 5439 5439 5440 5440 5439 5439 5438 5437 5437 5437 5437 5438 5437 5436 5436 5435 5435 5434 5434 5434 5433 5432 5431 5430 5429 5428 5427 5426 5426 5425 5424 5423 5422 5421 5420 5419 5418 5418 5417 5416 5415 5414 5413 5413 5412 5411 5410 5409 5407 5406 5405 5403 5401 5400 5398 5396 5395 5393 5391 5389 5387 5386 5384
5437 5437 5437 5437 5437 5436 5436 5436 5435 5434 5434 5433 5432 5432 5432 5433 5433 5433 5434 5434 5433 5433 5433 5433 5434 5434 5434 5434 5433 5432 5432 5431 5431 5431 5433 5433 5432 5431 5430 5430 5429 5429 5428 5427 5426 5425 5424 5423 5422 5422 5421 5420 5419 5418 5417 5416 5415 5414 5413 5412 5411 5411 5410 5409 5408 5407 5406 5405 5404 5403 5402 5401 5399 5398 5396 5394 5392 5391 5389 5387 5386 5384 5382 5380 5378 5377
5432 5432 5431 5431 5431 5431 5431 5430 5429 5428 5428 5427 5426 5427 5427 5428 5428 5428 5428 5428 5428 5428 5428 5428 5428 5429 5429 5429 5427 5426 5426 5426 5426 5426 5427 5428 5427 5426 5425 5424 5424 5423 5423 5422 5421 5420 5419 5418 5417 5416 5416 5415 5414 5412 5411 5410 5409 5408 5407 5406 5406 5405 5404 5402 5401 5400 5399 5398 5397 5396 5395 5394 5392 5391 5389 5387 5385 5383 5381 5380 5378 5376 5374 5373 5371 5370
5426 5426 5426 5426 5426 5425 5425 5424 5423 5423 5422 5421 5421 5422 5422 5422 5423 5423 5423 5423 5423 5423 5423 5423 5423 5423 5424 5423 5422 5420 5420 5421 5421 5421 5422 5423 5422 5421 5420 5419 5419 5418 5418 5417 5416 5414 5413 5412 5412 5411 5410 5409 5408 5407 5406 5404 5403 5402 5401 5401 5400 5399 5397 5396 5395 5394 5393 5392 5391 5390 5388 5387 5385 5384 5382 5380 5378 5376 5374 5372 5371 5369 5367 5366 5364 5362
5421 5421 5421 5421 5420 5420 5419 5418 5418 5417 5416 5416 5416 5417 5417 5417 5417 5417 5417 5417 5417 5417 5418 5418 5418 5418 5418 5418 5416 5415 5415 5416 5416 5416 5417 5417 5417 5416 5415 5414 5413 5413 5413 5412 5411 5409 5408 5407 5407 5406 5405 5404 5402 5401 5400 5399 5397 5396 5396 5395 5394 5393 5391 5390 5389 5387 5386 5385 5384 5383 5381 5380 5378 5377 5375 5373 5371 5369 5367 5365 5363 5362 5360 5359 5357 5355
5415 5415 5416 5415 5415 5414 5414 5413 5411 5411 5410 5411 5411 5411 5411 5411 5412 5412 5412 5412 5412 5412 5412 5413 5413 5413 5413 5412 5411 5410 5410 5411 5411 5411 5411 5412 5412 5411 5410 5409 5408 5408 5408 5407 5406 5404 5403 5402 5401 5401 5400 5398 5397 5396 5394 5393 5392 5391 5390 5389 5388 5387 5386 5384 5383 5381 5380 5379 5377 5376 5375 5373 5371 5370 5368 5366 5364 5362 5360 5358 5356 5355 5353 5351 5350 5348
5411 5410 5410 5410 5409 5409 5408 5407 5406 5405 5405 5406 5406 5406 5406 5406 5406 5406 5406 5407 5407 5407 5407 5408 5408 5408 5408 5407 5406 5406 5405 5405 5406 5406 5406 5407 5407 5406 5405 5404 5403 5403 5403 5402 5401 5399 5398 5397 5396 5396 5395 5393 5392 5390 5389 5388 5387 5386 5385 5383 5382 5381 5380 5378 5377 5376 5374 5372 5371 5369 5368 5366 5365 5363 5361 5359 5357 5355 5353 5351 5349 5347 5346 5344 5342 5341
5406 5406 5405 5404 5404 5403 5403 5401 5400 5399 5399 5400 5401 5401 5401 5401 5401 5401 5401 5402 5402 5402 5402 5403 5403 5403 5403 5403 5402 5401 5400 5400 5400 5401 5401 5401 5402 5401 5400 5399 5398 5398 5398 5397 5396 5394 5393 5392 5391 5391 5390 5388 5386 5385 5384 5382 5381 5380 5379 5378 5377 5376 5374 5373 5371 5370 5368 5366 5365 5363 5361 5360 5358 5356 5354 5352 5350 5348 5346 5344 5342 5340 5338 5337 5335 5334
5401 5401 5400 5400 5399 5398 5398 5396 5395 5394 5394 5394 5395 5396 5396 5396 5396 5396 5396 5397 5397 5397 5397 5398 5398 5397 5398 5398 5397 5396 5395 5395 5395 5395 5396 5396 5397 5396 5395 5394 5393 5392 5392 5391 5390 5389 5388 5387 5386 5386 5385 5383 5381 5380 5378 5377 5376 5375 5374 5373 5371 5370 5369 5367 5365 5364 5362 5360 5359 5357 5355 5353 5351 5349 5347 5345 5343 5341 5339 5337 5335 5333 5331 5330 5328 5327
5395 5396 5396 5396 5395 5394 5393 5392 5391 5390 5389 5389 5390 5390 5391 5391 5391 5391 5392 5392 5392 5393 5392 5392 5392 5393 5393 5392 5392 5391 5391 5390 5390 5390 5391 5391 5391 5391 5391 5390 5388 5388 5387 5386 5385 5384 5383 5382 5382 5381 5380 5378 5376 5375 5374 5372 5371 5370 5369 5367 5366 5364 5363 5361 5360 5358 5356 5354 5353 5351 5349 5347 5345 5343 5341 5338 5336 5334 5332 5330 5328 5326 5324 5323 5322 5321
5390 5390 5391 5391 5391 5390 5389 5388 5387 5386 5385 5384 5384 5385 5385 5386 5386 5387 5387 5387 5388 5387 5387 5387 5387 5388 5388 5387 5387 5386 5386 5385 5385 5385 5386 5386 5386 5386 5386 5385 5384 5382 5382 5381 5381 5380 5379 5378 5378 5377 5375 5373 5371 5370 5369 5367 5366 5365 5364 5362 5361 5359 5357 5356 5354 5352 5351 5349 5347 5345 5343 5341 5339 5336 5334 5332 5330 5328 5325 5323 5321 5319 5317 5316 5315 5315
5384 5385 5385 5385 5386 5386 5385 5384 5383 5382 5381 5380 5380 5380 5380 5381 5381 5382 5382 5382 5382 5382 5382 5382 5383 5383 5382 5382 5382 5381 5381 5381 5380 5380 5381 5381 5381 5381 5381 5381 5379 5377 5377 5376 5376 5375 5375 5374 5373 5372 5370 5369 5367 5366 5364 5363 5361 5360 5358 5357 5356 5354 5352 5351 5349 5347 5345 5343 5341 5339 5337 5335 5332 5330 5328 5326 5324 5321 5319 5316 5314 5312 5311 5310 5309 5309
5378 5379 5380 5380 5380 5380 5380 5380 5379 5379 5377 5376 5375 5375 5375 5376 5377 5377 5377 5377 5377 5377 5376 5377 5378 5377 5377 5377 5376 5376 5376 5376 5376 5375 5375 5376 5376 5376 5377 5375 5374 5373 5372 5371 5371 5371 5371 5370 5369 5367 5366 5364 5362 5361 5360 5358 5357 5355 5354 5352 5351 5349 5347 5345 5343 5341 5339 5337 5335 5333 5331 5329 5326 5324 5322 5320 5318 5316 5313 5311 5308 5306 5304 5304 5304 5303
5373 5373 5373 5374 5375 5375 5375 5375 5375 5375 5373 5372 5371 5370 5371 5371 5372 5373 5372 5372 5372 5371 5371 5372 5372 5372 5372 5371 5371 5371 5371 5372 5371 5370 5370 5370 5371 5371 5372 5370 5369 5368 5368 5366 5366 5366 5366 5366 5365 5362 5361 5359 5358 5357 5355 5354 5352 5351 5349 5347 5346 5344 5342 5340 5338 5336 5334 5331 5329 5327 5325 5323 5321 5318 5316 5314 5312 5310 5307 5305 5302 5300 5299 5298 5298 5298
5369 5369 5368 5368 5369 5369 5369 5370 5370 5370 5369 5368 5367 5366 5366 5366 5367 5367 5367 5367 5366 5366 5366 5366 5366 5366 5366 5366 5366 5367 5367 5367 5366 5365 5365 5365 5366 5366 5366 5365 5364 5363 5363 5362 5361 5361 5362 5362 5361 5358 5356 5355 5354 5352 5351 5349 5347 5346 5344 5343 5341 5339 5337 5335 5333 5331 5328 5326 5324 5321 5319 5317 5315 5313 5311 5309 5307 5305 5302 5300 5297 5295 5293 5293 5293 5292
5364 5364 5364 5364 5364 5363 5363 5364 5364 5364 5364 5363 5362 5362 5361 5361 5361 5362 5362 5362 5361 5361 5361 5361 5361 5361 5361 5361 5361 5362 5362 5362 5361 5360 5360 5360 5361 5361 5361 5360 5359 5359 5359 5358 5357 5356 5357 5357 5356 5355 5352 5351 5349 5348 5347 5345 5343 5341 5340 5338 5337 5335 5333 5330 5327 5325 5323 5321 5319 5316 5314 5311 5309 5307 5306 5304 5302 5300 5297 5295 5293 5290 5288 5287 5287 5286
5359 5359 5359 5359 5359 5359 5359 5359 5359 5359 5359 5359 5358 5357 5357 5357 5356 5356 5357 5357 5357 5356 5356 5356 5356 5356 5356 5356 5356 5357 5357 5357 5356 5356 5356 5356 5356 5356 5356 5356 5354 5354 5353 5353 5352 5352 5351 5352 5351 5350 5349 5347 5346 5344 5342 5341 5339 5337 5335 5334 5332 5330 5328 5325 5322 5320 5317 5316 5313 5311 5309 5307 5305 5302 5301 5299 5297 5295 5293 5291 5288 5286 5284 5282 5281 5281
5355 5355 5355 5355 5354 5354 5354 5354 5354 5353 5354 5354 5353 5353 5353 5352 5352 5352 5352 5352 5352 5352 5351 5351 5351 5351 5351 5351 5351 5352 5352 5352 5352 5351 5351 5351 5351 5351 5351 5350 5350 5349 5348 5347 5347 5347 5346 5346 5346 5346 5344 5343 5342 5341 5338 5336 5334 5332 5331 5329 5327 5325 5323 5320 5317 5315 5312 5310 5308 5306 5304 5302 5300 5298 5296 5295 5293 5291 5289 5287 5285 5282 5280 5278 5276 5275
5351 5350 5350 5350 5350 5349 5349 5349 5349 5348 5348 5348 5348 5348 5348 5348 5347 5347 5347 5347 5347 5347 5346 5346 5346 5346 5346 5346 5347 5348 5348 5348 5347 5346 5346 5346 5346 5346 5346 5346 5345 5344 5343 5342 5342 5342 5341 5341 5341 5341 5340 5339 5338 5337 5334 5331 5329 5328 5326 5324 5322 5320 5317 5315 5312 5309 5307 5306 5303 5301 5299 5297 5295 5294 5292 5291 5289 5287 5285 5283 5281 5279 5276 5274 5272 5270
5346 5346 5345 5345 5345 5344 5344 5344 5344 5344 5343 5343 5343 5343 5344 5343 5343 5342 5342 5342 5342 5342 5342 5341 5341 5342 5342 5343 5343 5344 5344 5343 5342 5341 5341 5341 5341 5341 5341 5341 5340 5340 5338 5337 5337 5337 5336 5336 5336 5336 5335 5334 5333 5332 5330 5328 5325 5323 5321 5320 5317 5315 5312 5310 5307 5304 5302 5301 5299 5296 5294 5292 5291 5289 5288 5286 5285 5283 5281 5280 5277 5275 5273 5271 5269 5266
5342 5341 5341 5340 5340 5340 5339 5339 5339 5339 5339 5338 5338 5338 5338 5338 5337 5337 5336 5336 5336 5337 5337 5337 5337 5338 5338 5339 5339 5339 5339 5339 5338 5337 5337 5337 5337 5337 5336 5336 5336 5335 5333 5332 5332 5332 5331 5331 5331 5331 5330 5329 5328 5327 5325 5323 5321 5319 5317 5315 5312 5310 5307 5305 5302 5300 5297 5296 5294 5291 5290 5288 5286 5285 5284 5282 5281 5280 5278 5276 5274 5272 5270 5267 5265 5262
5337 5337 5336 5336 5335 5335 5335 5334 5334 5334 5334 5334 5333 5333 5333 5332 5332 5331 5331 5331 5331 5332 5332 5333 5333 5334 5334 5335 5335 5334 5334 5334 5333 5333 5332 5332 5332 5332 5332 5331 5331 5330 5329 5328 5327 5326 5326 5326 5326 5326 5325 5324 5323 5321 5320 5318 5316 5314 5312 5310 5307 5305 5302 5300 5297 5295 5293 5291 5289 5287 5285 5283 5282 5281 5279 5278 5277 5276 5274 5272 5271 5268 5266 5264 5261 5259
5333 5332 5331 5331 5331 5330 5330 5329 5329 5329 5329 5328 5328 5328 5327 5327 5327 5327 5327 5327 5327 5328 5328 5329 5329 5329 5330 5330 5330 5329 5329 5329 5328 5328 5327 5327 5327 5327 5327 5326 5326 5325 5324 5323 5322 5322 5321 5321 5321 5321 5320 5319 5318 5317 5315 5313 5311 5309 5307 5305 5303 5301 5298 5295 5292 5290 5288 5286 5284 5282 5281 5279 5278 5276 5275 5274 5273 5272 5271 5269 5267 5265 5262 5260 5258 5256
5328 5327 5327 5326 5326 5326 5325 5324 5324 5323 5323 5322 5322 5322 5322 5322 5322 5322 5323 5323 5323 5323 5324 5324 5324 5325 5325 5325 5325 5324 5324 5324 5323 5323 5322 5322 5322 5321 5321 5321 5321 5320 5319 5318 5318 5317 5317 5316 5316 5316 5315 5314 5313 5312 5310 5309 5306 5304 5302 5300 5298 5296 5294 5291 5288 5286 5284 5281 5280 5278 5276 5275 5274 5273 5271 5270 5269 5268 5266 5265 5263 5261 5259 5256 5254 5252
5324 5323 5322 5322 5321 5321 5320 5319 5319 5318 5318 5317 5317 5317 5318 5318 5318 5318 5318 5319 5319 5319 5319 5320 5320 5320 5320 5320 5320 5320 5320 5319 5319 5318 5318 5317 5317 5316 5316 5316 5316 5315 5314 5314 5313 5313 5312 5311 5311 5310 5310 5309 5307 5306 5306 5304 5302 5299 5297 5295 5293 5291 5290 5287 5285 5282 5279 5277 5275 5274 5272 5271 5270 5269 5268 5267 5266 5264 5263 5261 5259 5257 5255 5252 5250 5248
5320 5319 5318 5317 5317 5316 5316 5315 5314 5313 5313 5313 5313 5312 5312 5313 5313 5313 5313 5314 5314 5315 5315 5316 5316 5316 5316 5316 5316 5316 5315 5315 5314 5314 5313 5312 5312 5311 5311 5311 5311 5310 5310 5309 5309 5308 5308 5307 5306 5305 5305 5304 5302 5301 5301 5299 5297 5294 5292 5289 5288 5286 5285 5284 5281 5278 5275 5273 5271 5270 5268 5267 5266 5265 5264 5263 5262 5261 5259 5257 5255 5253 5251 5248 5246 5245
5316 5315 5314 5313 5312 5312 5311 5310 5310 5309 5309 5308 5308 5307 5307 5307 5307 5308 5308 5308 5309 5310 5311 5311 5311 5311 5312 5312 5312 5312 5311 5310 5310 5309 5308 5308 5307 5307 5306 5306 5305 5305 5305 5304 5304 5303 5303 5302 5301 5300 5300 5298 5297 5296 5295 5294 5292 5290 5287 5285 5283 5281 5280 5279 5277 5275 5271 5269 5267 5265 5264 5263 5262 5261 5261 5260 5259 5257 5256 5254 5251 5249 5247 5245 5243 5242
5312 5311 5310 5309 5308 5307 5307 5306 5306 5305 5304 5303 5303 5302 5302 5302 5302 5302 5303 5303 5304 5305 5306 5306 5306 5307 5307 5307 5308 5308 5307 5306 5305 5305 5304 5303 5303 5302 5301 5301 5301 5300 5300 5299 5299 5298 5298 5297 5297 5296 5295 5293 5292 5291 5291 5289 5287 5285 5283 5281 5278 5277 5276 5274 5273 5270 5268 5265 5263 5262 5260 5259 5258 5258 5257 5257 5256 5254 5252 5250 5248 5246 5243 5241 5240 5239
5308 5307 5306 5305 5304 5303 5303 5302 5301 5300 5300 5299 5298 5297 5297 5297 5297 5297 5298 5298 5299 5300 5301 5301 5302 5302 5303 5303 5303 5303 5302 5301 5301 5300 5299 5299 5298 5297 5297 5296 5296 5295 5295 5294 5294 5294 5293 5292 5292 5291 5290 5289 5287 5287 5286 5284 5282 5281 5279 5276 5274 5272 5271 5270 5268 5266 5263 5261 5260 5258 5257 5255 5255 5254 5254 5254 5253 5251 5249 5247 5245 5242 5240 5238 5237 5237
5304 5303 5301 5301 5300 5299 5298 5297 5296 5296 5295 5294 5294 5293 5292 5292 5292 5293 5293 5294 5295 5295 5296 5296 5297 5298 5298 5299 5299 5298 5297 5297 5296 5296 5295 5294 5293 5293 5292 5292 5291 5291 5290 5290 5289 5289 5288 5288 5287 5286 5285 5284 5283 5282 5281 5280 5278 5276 5274 5272 5271 5269 5267 5266 5263 5261 5259 5257 5256 5255 5253 5252 5251 5251 5251 5251 5250 5249 5246 5244 5241 5239 5237 5236 5235 5235
5299 5298 5297 5296 5295 5294 5293 5293 5292 5291 5290 5290 5289 5289 5288 5288 5288 5288 5289 5290 5290 5291 5291 5292 5293 5293 5294 5294 5294 5294 5293 5292 5292 5291 5291 5290 5289 5288 5287 5287 5286 5286 5285 5285 5285 5284 5284 5283 5282 5281 5280 5279 5278 5278 5277 5275 5273 5271 5269 5268 5266 5265 5263 5261 5259 5257 5255 5253 5252 5251 5250 5249 5248 5247 5247 5247 5246 5246 5244 5241 5239 5236 5234 5233 5232 5232
5295 5294 5293 5292 5291 5290 5289 5288 5287 5287 5286 5286 5285 5285 5284 5284 5284 5285 5285 5285 5286 5286 5287 5288 5288 5289 5289 5289 5289 5289 5289 5288 5287 5287 5286 5286 5285 5284 5283 5282 5282 5281 5281 5281 5280 5279 5279 5278 5277 5276 5275 5275 5274 5273 5272 5271 5269 5267 5265 5263 5262 5261 5259 5257 5255 5253 5251 5250 5248 5247 5246 5245 5245 5244 5244 5244 5243 5243 5241 5239 5236 5233 5231 5230 5230 5231
5291 5290 5289 5288 5287 5286 5285 5284 5283 5283 5282 5281 5281 5281 5281 5281 5281 5281 5281 5282 5282 5283 5283 5284 5284 5285 5285 5285 5285 5285 5284 5284 5283 5282 5282 5281 5280 5279 5279 5278 5277 5277 5276 5276 5275 5275 5274 5273 5273 5272 5271 5270 5269 5268 5267 5266 5265 5263 5261 5259 5258 5256 5255 5253 5251 5250 5248 5246 5245 5244 5243 5242 5241 5241 5240 5240 5240 5240 5239 5237 5234 5231 5229 5228 5228 5228
5286 5286 5285 5284 5283 5282 5281 5280 5279 5279 5278 5278 5277 5277 5277 5277 5278 5278 5278 5279 5279 5279 5279 5280 5280 5280 5281 5281 5281 5280 5280 5279 5279 5278 5277 5277 5276 5275 5274 5274 5273 5273 5272 5271 5271 5270 5269 5269 5268 5268 5267 5266 5265 5263 5262 5261 5260 5259 5257 5255 5254 5252 5250 5249 5247 5246 5244 5243 5241 5241 5240 5239 5238 5238 5237 5236 5236 5236 5235 5234 5232 5229 5227 5226 5226 5226
5282 5281 5280 5280 5279 5278 5277 5276 5276 5275 5274 5274 5273 5273 5273 5274 5274 5275 5275 5275 5275 5275 5275 5276 5276 5276 5276 5276 5276 5276 5275 5275 5274 5274 5273 5272 5272 5271 5270 5270 5269 5268 5267 5267 5266 5266 5265 5264 5264 5264 5264 5263 5261 5259 5257 5256 5256 5254 5253 5251 5250 5248 5246 5245 5243 5242 5241 5240 5239 5238 5237 5236 5235 5235 5234 5233 5232 5232 5232 5231 5229 5227 5225 5224 5224 5225